Location: Newark
(41.0400°S, 62.7845°W)
Time: 15:22:02
(UTC+00:00)

Vanguard 2 Rocket - Pass Details

Date: 04 December 2021
Orbit: 553 x 3325 km, 32.9° (Epoch: 23 January)

Event Time Altitude Azimuth Distance (km) Brightness Sun altitude
Rises 05:48:55 0° 349° (NNW) 7,140 - -21.9°
Reaches altitude 10° 05:56:04 10° 4° (N) 6,264 - -21.3°
Exits shadow 05:57:22 12° 7° (N) 6,125 10.6 -21.2°
Maximum altitude 06:07:56 19° 40° (NE) 5,376 10.6 -20.2°
Drops below altitude 10° 06:18:36 10° 77° (ENE) 5,636 11.2 -19.1°
Sets 06:24:17 0° 92° (E) 6,234 11.7 -18.5°
